Weather in Yunan

China     23°08′54″N   111°45′44″E
temp.,
°C
wind,
m/s
gust,
m/s
humid.,
%
clouds,
%
prec.,
mm/h
press.,
hPa
HPBL,
m
20 april, tue
tue2023:00+19e259598 0.6 1013266
02:00+19e2692100 0.8 1012335
05:00+19e1394100 0.5 1012141
08:00+19e249199 0.7 1014287
11:00+22e2579100 0.0 1014778
14:00+24e2472100 0.0 1011916
17:00+25ese246989 0.0 1010784
20:00+23e2578100 0.0 1011140
21 april, wed
wed2123:00+22e2280100 0.0 101339
02:00+22e1285100 0.0 101254
05:00+21e128887 0.0 101251
08:00+22ese138291 0.0 1013391
11:00+24ese127596 0.0 1014751
14:00+28ese126278 0.1 10111196
17:00+28se126351 0.1 1009826
20:00+24e007727 0.3 101011
22 april, thu
thu2223:00+23sse118346 0.0 101218
02:00+22sse11870 0.0 101018
05:00+21sse11891 0.0 101011
08:00+23sse127884 0.1 1011288
11:00+28sse116329 0.0 1011828
14:00+28wnw336532 1.4 1008954
17:00+29sw016012 0.8 10061209
20:00+26se00750 0.8 100711
23 april, fri
fri2323:00+24ene11810 0.0 100911
02:00+23ese00860 0.0 100811
05:00+23ese11890 0.0 100712
08:00+25s11780 0.0 1009255
11:00+31s125727 0.1 10091331
14:00+32s124877 0.1 10061786
17:00+31n115293 0.0 1004771
20:00+28ese226485 0.0 100632
24 april, sat
sat2423:00+26se237290 0.0 1008130
02:00+24sse227711 0.0 100860
05:00+23se23830 0.0 100863
08:00+25se237430 0.0 1011596
11:00+30sse465453 0.0 10101468
14:00+31s454796 0.0 10082089
17:00+29se3758100 0.0 1007795
20:00+27sse396687 0.0 1009617